IRIDIUM 179

Last updated on Tue Sep 22 2026 00:03:21 GMT+0000 (Coordinated Universal Time)

1 56730U 23068W 26264.24439707 .00000605 00000+0 76589-4 0 9995 2 56730 86.6838 354.5097 0002383 90.7816 269.3678 14.80038813180570
UTC large
Height (km)
Speed (km/s)
/
Latitude / Longitude
Inclination (degrees)
Orbital Period (minutes)
Azimuth
Elevation
Range (km)
Doppler Factor

Next 0 passes for location: London (51.5072 / 0.1276)

No passes found over London.
IRIDIUM 179